This demonstration page uses our WeatherBlox Daily Observations layout. Learn more.

Left ArrowRight Arrow

Hourly Observations for November 20, 2022

Temp ( °F °C ) Dew Point ( °F °C ) Humidity (%) Winds ( mph kmh ) Pressure ( in mb ) Visibility ( mi km ) Precip ( " mm )
12:53 am 00:53 Cloudy with Mist and Fog 31 -0.6 29 -1.7 92 92 N 3 6 30.45 1031 6 10 0.00 0.00
1:53 am 01:53 Cloudy with Mist and Fog 32 0 29 -1.7 88 88 Calm 30.43 1031 6 10 0.00 0.00
2:53 am 02:53 Cloudy with Mist and Fog 33 0.6 29 -1.7 85 85 Calm 30.43 1030 6 10 0.00 0.00
3:53 am 03:53 Cloudy with Mist and Fog 32 0 29 -1.7 88 88 N 3 6 30.41 1030 6 10 0.00 0.00
4:53 am 04:53 Cloudy 32 0 29 -1.7 88 88 Calm 30.41 1030 7 11 0.00 0.00
5:53 am 05:53 Cloudy 33 0.6 28 -2.2 81 81 N 6 9 30.40 1029 7 11 0.00 0.00
6:53 am 06:53 Cloudy 33 0.6 29 -1.7 85 85 Calm 30.41 1030 8 13 0.00 0.00
7:53 am 07:53 Cloudy 33 0.6 29 -1.7 85 85 N 3 6 30.42 1030 8 13 0.00 0.00
8:53 am 08:53 Cloudy 35 1.7 30 -1.1 82 82 S 5 7 30.43 1031 7 11 0.00 0.00
9:53 am 09:53 Cloudy with Mist and Fog 36 2.2 32 0 85 85 S 6 9 30.44 1031 6 10 0.00 0.00
10:09 am 10:09 Cloudy with Haze 37 2.8 32 0 82 82 S 3 6 30.50 1033 6 10 0.00 0.00
10:53 am 10:53 Cloudy 38 3.3 32 0 79 79 SW 3 6 30.44 1031 8 13 0.01 0.13
11:53 am 11:53 Cloudy 40 4.4 31 -0.6 70 70 S 7 11 30.41 1030 10 16 0.00 0.00
12:53 pm 12:53 Cloudy 40 4.4 28 -2.2 62 62 S 5 7 30.36 1028 10 16 0.00 0.00
1:53 pm 13:53 Cloudy 41 5 28 -2.2 60 60 SSE 6 9 30.32 1027 10 16 0.00 0.00
2:53 pm 14:53 Cloudy 42 5.6 28 -2.2 57 57 SSW 6 9 30.29 1026 10 16 0.00 0.00
3:53 pm 15:53 Cloudy 42 5.6 29 -1.7 59 59 SSE 6 9 30.29 1026 10 16 0.00 0.00
4:53 pm 16:53 Cloudy 41 5 30 -1.1 65 65 S 9 15 30.27 1025 10 16 0.00 0.00
5:53 pm 17:53 Cloudy 40 4.4 32 0 73 73 S 8 13 30.27 1025 10 16 0.00 0.00
6:53 pm 18:53 Cloudy 40 4.4 32 0 73 73 SSE 7 11 30.29 1026 10 16 0.00 0.00
7:53 pm 19:53 Cloudy 40 4.4 31 -0.6 70 70 S 9 15 30.29 1026 10 16 0.00 0.00
8:53 pm 20:53 Cloudy 39 3.9 32 0 76 76 SSE 8 13 30.29 1026 10 16 0.00 0.00
9:53 pm 21:53 Clear 36 2.2 31 -0.6 82 82 SSE 5 7 30.31 1026 10 16 0.00 0.00
10:53 pm 22:53 Clear 34 1.1 30 -1.1 85 85 SSE 6 9 30.31 1026 10 16 0.00 0.00
11:53 pm 23:53 Clear 32 0 29 -1.7 88 88 SE 7 11 30.30 1026 10 16 0.00 0.00

Powered by AerisWeather